Hourly Weather Roundup
Issued by NWS Central Illinois

Home | Current Version | Previous Version | Text Only | Print | Product List | Glossary On
Versions: 1 2 3 4 5 6 7 8 9 10 11 12 13 14 15 16 17 18 19 20 21 22 23 24 25 26 27 28 29 30 31 32 33 34 35 36 37 38 39 40 41 42 43 44 45 46 47 48 49 50
000
NZUS43 KILX 292210
HWRILX

AREA WEATHER ROUNDUP
NATIONAL WEATHER SERVICE, LINCOLN IL
500 PM CDT FRI AUG 29 2014


CITY           SKY/WX    TMP DP  RH WIND       PRES   REMARKS
BLOOMINGTON    MOSUNNY   83  73  71 S12       29.90F HX  89
CHAMPAIGN      MOSUNNY   86  71  60 S13       29.91S HX  91
DECATUR        SUNNY     88  67  49 S14G22    29.89S HX  91
FLORA          MOSUNNY   87  68  53 S9G16     29.92R HX  90
GALESBURG      MOSUNNY   86  71  60 SE10      29.83F HX  91
JACKSONVILLE   SUNNY     88  73  61 SE10G16   29.85F HX  95
LACON          SUNNY     84  71  64 S6        29.85S HX  89
LAWRENCEVILLE  MOSUNNY   84  73  69 SE7       29.92F HX  90
LITCHFIELD     SUNNY     85  68  55 S14       29.88S HX  88
$$


CITY           SKY/WX    TMP DP  RH WIND       PRES   REMARKS
LINCOLN        MOSUNNY   88  70  54 S10       29.84S HX  92
MACOMB         SUNNY     84  68  58 S13G18    29.84F HX  87
MATTOON        SUNNY     86  68  54 S10G17    29.91R HX  89
MT CARMEL AP   MOSUNNY   91  70  49 S9        29.92S HX  97
OLNEY-NOBLE AP SUNNY     88  68  51 CALM      29.92S HX  91
PARIS          PTSUNNY   78  72  83 CALM      29.93R THUNDER
PEORIA         PTSUNNY   84  71  65 S8        29.85F HX  89
PONTIAC        MOSUNNY   86  75  70 SE6       29.88S HX  95
RANTOUL        SUNNY     87  74  64 SE7       29.91R HX  95
ROBINSON       MOSUNNY   85  73  66 S9        29.93S THUNDER HX  92
SPRINGFIELD    MOSUNNY   87  70  56 S12G22    29.86F HX  92
TAYLORVILLE    SUNNY     84  70  61 S13       29.88S HX  88
$$

...REGIONAL REPORTS...


CITY           SKY/WX    TMP DP  RH WIND       PRES   REMARKS
CHICAGO O`HARE MOSUNNY   86  69  56 S14       29.88F HX  90
KANKAKEE       PTSUNNY   79  70  74 SE6       29.92R HX  81
MOLINE         MOSUNNY   86  72  62 SE8       29.82S HX  92
MOUNT VERNON   SUNNY     88  70  55 S9        29.91S HX  92
PITTSFIELD     SUNNY     87  66  49 SE8       29.84F HX  90
QUINCY         PTSUNNY   83  69  62 S7        29.83R HX  86
ROCKFORD       MOSUNNY   84  71  65 S15       29.87R HX  89
$$


CITY           SKY/WX    TMP DP  RH WIND       PRES   REMARKS
BURLINGTON     MOSUNNY   83  71  67 S6        29.81F HX  87
CEDAR RAPIDS   PTSUNNY   81  71  71 S8        29.79S HX  85
DES MOINES     LGT RAIN  74  69  85 S8        29.80R
KIRKSVILLE     CLOUDY    77  72  84 SW6       29.82F
OTTUMWA        LGT RAIN  71  69  93 SW7       29.81S FOG
ST LOUIS       MOSUNNY   91  64  40 SE17G25   29.85S HX  92
$$


CITY           SKY/WX    TMP DP  RH WIND       PRES   REMARKS
TERRE HAUTE    PTSUNNY   79  69  71 SW3       29.93R HX  81
EVANSVILLE     PTSUNNY   90  62  39 S8        29.93S HX  90
INDIANAPOLIS   MOSUNNY   85  71  63 SE10      29.94F HX  90
LAFAYETTE      PTSUNNY   83  73  72 SE9       29.92F HX  89
MADISON        PTSUNNY   84  69  60 S14       29.83S HX  88
MILWAUKEE      CLOUDY    78  71  79 S16       29.87F HX  80
$$




USA.gov is the U.S. government's official web portal to all federal, state and local government web resources and services.